Regional Weather Roundup
Issued by NWS State College, PA

Home | Current Version | Previous Version | Graphics & Text | Print | Product List | Glossary Off
Versions: 1 2 3 4 5 6 7 8 9 10 11 12 13 14 15 16 17 18 19 20 21 22 23 24 25 26 27 28 29 30 31 32 33 34 35 36 37 38 39 40 41 42 43 44 45 46 47 48 49 50

326
ASUS41 KCTP 222303
RWRCTP

REGIONAL WEATHER ROUNDUP
NATIONAL WEATHER SERVICE STATE COLLEGE PA
600 PM EST WED NOV 22 2017

Note: "fair" indicates few or no clouds below 12,000 feet with no
significant weather and/or obstructions to visibility.

* = STATION THAT DOES NOT REPORT PRECIPITATION /E.G. RAIN...SNOW...ETC/
    THUNDER OR FOG.

PAZ002>004-007>009-013>016-020>023-029>032-230000-
WESTERN PENNSYLVANIA

CITY           SKY/WX    TMP DP  RH WIND       PRES   REMARKS
ERIE           CLOUDY    34  20  56 NW13G20   30.23S
MEADVILLE      CLOUDY    29  23  78 W5        30.22R
FRANKLIN*      FLURRIES  29  23  78 NW5       30.21R
NEW CASTLE     CLOUDY    32  21  64 W5        30.25R
BEAVER COUNTY  CLOUDY   N/A N/A N/A NW6       30.24R
BUTLER*        CLOUDY    31  19  61 W7        30.23R
PITTSBURGH INT CLOUDY    33  23  66 NW13      30.23R
PITTSBURGH     CLOUDY    33  22  63 NW8       30.22R
INDIANA*       CLOUDY    32  23  69 NW8       30.23R
LATROBE        CLOUDY    32  23  69 NW12      30.22R
WASHINGTON CO* CLOUDY    33  22  63 NW12      30.26R
$$

PAZ004>006-010>012-017>019-024>028-033>037-041-042-045-046-049>053-230000-
CENTRAL PENNSYLVANIA

CITY           SKY/WX    TMP DP  RH WIND       PRES   REMARKS
BRADFORD       CLOUDY    27  20  75 NW15      30.13R
DUBOIS         CLOUDY    29  19  66 NW7       30.15R
CLEARFIELD     CLOUDY    31  22  69 W14       30.16R
JOHNSTOWN      CLOUDY    29  21  72 NW15G24   30.12R
ALTOONA        CLOUDY    35  24  64 NW10      30.15R
STATE COLLEGE  CLOUDY    34  23  64 W15       30.15R
WILLIAMSPORT   CLOUDY    39  21  48 NW12G20   30.14R
SELINSGROVE    CLOUDY    38  22  52 NW10      30.15R
FT INDIANTOWN  CLOUDY    40  22  49 NW6G24    30.11R
CAPITAL CITY   CLOUDY    42  21  43 NW15      30.13R
HARRISBURG     MOCLDY    41  23  48 NW14      30.12R
YORK           PTCLDY    39  25  57 NW10      30.11R
$$

PAZ038>040-043-044-047-048-054-055-060>062-067>071-230000-
EASTERN PENNSYLVANIA

CITY           SKY/WX    TMP DP  RH WIND       PRES   REMARKS
SCRANTON       CLOUDY    35  22  58 N17G25    30.09R
MOUNT POCONO   CLOUDY    30  22  72 NW20G36   30.01R
ALLENTOWN      CLOUDY    41  24  51 NW9G22    30.07R
QUAKERTOWN*    MOCLDY    39  25  56 NW9G17    30.06R
READING        CLOUDY    41  26  55 NW21      30.08R
LANCASTER      CLOUDY    42  26  53 NW13      30.10R
COATESVILLE    MOCLDY    41  25  52 NW17      30.07R
POTTSTOWN      MOCLDY    40  24  53 NW13G20   30.08R
BLUE BELL      CLOUDY    41  27  56 NW10G18   30.07R
DOYLESTOWN     MOCLDY    40  26  57 NW10G17   30.04R
WILLOW GROVE   NOT AVBL
NORTH PHILA    CLOUDY    45  28  51 N10G20    30.06R
PHILADELPHIA   MOCLDY    46  25  43 NW16G28   30.06R
$$




USA.gov is the U.S. government's official web portal to all federal, state and local government web resources and services.